Time,TemperatureF,DewpointF,PressureIn,WindDirection,WindDirectionDegrees,WindSpeedMPH,WindSpeedGustMPH,Humidity,HourlyPrecipIn,Conditions,Clouds,dailyrainin,SoftwareType,DateUTC
2013-09-17 00:01:00,56.1,50.0,29.51,North,351,0.0,0.0,80,0.00,,---,0.00,VWS V12.08,2013-09-17 05:01:00,
2013-09-17 00:07:00,56.0,49.9,29.51,NNW,331,0.0,0.0,80,0.00,,---,0.00,VWS V12.08,2013-09-17 05:07:00,
2013-09-17 00:12:00,56.0,49.9,29.51,East,98,0.0,0.0,80,0.00,,---,0.00,VWS V12.08,2013-09-17 05:12:00,
2013-09-17 00:17:00,55.9,49.8,29.51,North,352,0.0,0.0,80,0.00,,---,0.00,VWS V12.08,2013-09-17 05:17:00,
2013-09-17 00:22:00,55.8,49.7,29.51,East,94,0.0,0.0,80,0.00,,---,0.00,VWS V12.08,2013-09-17 05:22:00,
2013-09-17 00:28:00,55.6,49.5,29.51,NNW,334,0.0,0.0,80,0.00,,---,0.00,VWS V12.08,2013-09-17 05:28:00,
2013-09-17 00:33:00,55.6,49.5,29.51,NNW,334,0.0,0.0,80,0.00,,---,0.00,VWS V12.08,2013-09-17 05:33:00,
2013-09-17 00:39:00,55.6,49.5,29.51,NW,315,0.0,0.0,80,0.00,,---,0.00,VWS V12.08,2013-09-17 05:39:00,
2013-09-17 00:45:00,55.7,49.6,29.51,NW,319,0.0,0.0,80,0.00,,---,0.00,VWS V12.08,2013-09-17 05:45:00,
2013-09-17 00:50:00,55.6,49.5,29.51,North,359,0.0,0.0,80,0.00,,---,0.00,VWS V12.08,2013-09-17 05:50:00,
2013-09-17 00:55:00,55.5,49.1,29.51,West,273,0.0,0.0,79,0.00,,---,0.00,VWS V12.08,2013-09-17 05:55:00,
2013-09-17 01:00:00,55.4,49.0,29.51,NNE,22,0.0,0.0,79,0.00,,---,0.00,VWS V12.08,2013-09-17 06:00:00,
2013-09-17 01:05:00,55.4,49.0,29.51,ESE,122,0.0,0.0,79,0.00,,---,0.00,VWS V12.08,2013-09-17 06:05:00,
2013-09-17 01:10:00,55.3,48.9,29.51,NNW,339,0.0,0.0,79,0.00,,---,0.00,VWS V12.08,2013-09-17 06:10:00,
2013-09-17 01:15:00,55.4,49.0,29.51,SW,220,0.0,0.0,79,0.00,,---,0.00,VWS V12.08,2013-09-17 06:15:00,
2013-09-17 01:20:00,55.4,48.7,29.50,NW,318,0.0,0.0,78,0.00,,---,0.00,VWS V12.08,2013-09-17 06:20:00,
2013-09-17 01:25:00,55.4,48.7,29.50,West,260,0.0,0.0,78,0.00,,---,0.00,VWS V12.08,2013-09-17 06:25:00,
2013-09-17 01:30:00,55.3,48.9,29.50,NNE,22,0.0,0.0,79,0.00,,---,0.00,VWS V12.08,2013-09-17 06:30:00,
2013-09-17 01:35:00,55.2,48.8,29.50,NNW,339,0.0,0.0,79,0.00,,---,0.00,VWS V12.08,2013-09-17 06:35:00,
2013-09-17 01:40:00,55.1,48.7,29.50,NW,308,0.0,0.0,79,0.00,,---,0.00,VWS V12.08,2013-09-17 06:40:00,
2013-09-17 01:45:00,55.1,48.7,29.50,West,268,0.0,0.0,79,0.00,,---,0.00,VWS V12.08,2013-09-17 06:45:00,
2013-09-17 01:50:00,55.1,48.4,29.51,South,189,0.0,0.0,78,0.00,,---,0.00,VWS V12.08,2013-09-17 06:50:00,
2013-09-17 01:55:00,55.1,48.7,29.51,North,1,0.0,0.0,79,0.00,,---,0.00,VWS V12.08,2013-09-17 06:55:00,
2013-09-17 02:00:00,55.0,48.3,29.50,NE,48,0.0,0.0,78,0.00,,---,0.00,VWS V12.08,2013-09-17 07:00:00,
2013-09-17 02:05:00,54.9,48.5,29.50,WNW,295,0.0,0.0,79,0.00,,---,0.00,VWS V12.08,2013-09-17 07:05:00,
2013-09-17 02:10:00,54.8,48.1,29.50,NNW,338,0.0,0.0,78,0.00,,---,0.00,VWS V12.08,2013-09-17 07:10:00,
2013-09-17 02:16:00,54.7,48.3,29.50,North,9,0.0,0.0,79,0.00,,---,0.00,VWS V12.08,2013-09-17 07:16:00,
2013-09-17 02:21:00,54.7,48.0,29.50,West,270,0.0,0.0,78,0.00,,---,0.00,VWS V12.08,2013-09-17 07:21:00,
2013-09-17 02:26:00,54.6,48.2,29.49,West,269,0.0,0.0,79,0.00,,---,0.00,VWS V12.08,2013-09-17 07:26:00,
2013-09-17 02:32:00,54.6,48.2,29.50,WNW,303,0.0,0.0,79,0.00,,---,0.00,VWS V12.08,2013-09-17 07:32:00,
2013-09-17 02:38:00,54.6,48.2,29.49,SW,232,0.0,0.0,79,0.00,,---,0.00,VWS V12.08,2013-09-17 07:38:00,
2013-09-17 02:44:00,54.5,48.1,29.50,NW,306,0.0,1.0,79,0.00,,---,0.00,VWS V12.08,2013-09-17 07:44:00,
2013-09-17 02:49:00,54.5,48.1,29.49,SW,223,0.0,1.0,79,0.00,,---,0.00,VWS V12.08,2013-09-17 07:49:00,
2013-09-17 02:55:00,54.5,48.1,29.50,NW,320,0.0,1.0,79,0.00,,---,0.00,VWS V12.08,2013-09-17 07:55:00,
2013-09-17 03:00:00,54.4,48.4,29.50,West,263,0.0,0.0,80,0.00,,---,0.00,VWS V12.08,2013-09-17 08:00:00,
2013-09-17 03:05:00,54.3,48.3,29.49,WSW,249,0.0,0.0,80,0.00,,---,0.00,VWS V12.08,2013-09-17 08:05:00,
2013-09-17 03:10:00,54.3,48.3,29.49,North,3,0.0,0.0,80,0.00,,---,0.00,VWS V12.08,2013-09-17 08:10:00,
2013-09-17 03:15:00,54.2,48.2,29.49,West,279,0.0,0.0,80,0.00,,---,0.00,VWS V12.08,2013-09-17 08:15:00,
2013-09-17 03:21:00,54.2,48.2,29.49,SSW,200,0.0,0.0,80,0.00,,---,0.00,VWS V12.08,2013-09-17 08:21:00,
2013-09-17 03:26:00,54.1,48.4,29.49,SW,235,0.0,0.0,81,0.00,,---,0.00,VWS V12.08,2013-09-17 08:26:00,
2013-09-17 03:31:00,54.0,48.3,29.49,West,275,0.0,0.0,81,0.00,,---,0.00,VWS V12.08,2013-09-17 08:31:00,
2013-09-17 03:37:00,53.9,48.2,29.49,SSE,159,0.0,0.0,81,0.00,,---,0.00,VWS V12.08,2013-09-17 08:37:00,
2013-09-17 03:43:00,53.9,48.2,29.49,WNW,287,0.0,0.0,81,0.00,,---,0.00,VWS V12.08,2013-09-17 08:43:00,
2013-09-17 03:48:00,53.8,48.1,29.48,North,359,0.0,0.0,81,0.00,,---,0.00,VWS V12.08,2013-09-17 08:48:00,
2013-09-17 03:54:00,53.7,48.3,29.48,NW,306,0.0,0.0,82,0.00,,---,0.00,VWS V12.08,2013-09-17 08:54:00,
2013-09-17 04:00:00,53.6,48.2,29.48,East,89,0.0,0.0,82,0.00,,---,0.00,VWS V12.08,2013-09-17 09:00:00,
2013-09-17 04:06:00,53.6,48.2,29.48,SW,218,0.0,0.0,82,0.00,,---,0.00,VWS V12.08,2013-09-17 09:06:00,
2013-09-17 04:12:00,53.5,48.2,29.47,WSW,237,0.0,0.0,82,0.00,,---,0.00,VWS V12.08,2013-09-17 09:12:00,
2013-09-17 04:18:00,53.4,48.0,29.47,ESE,104,0.0,0.0,82,0.00,,---,0.00,VWS V12.08,2013-09-17 09:18:00,
2013-09-17 04:24:00,53.4,48.0,29.48,SSE,157,0.0,0.0,82,0.00,,---,0.00,VWS V12.08,2013-09-17 09:24:00,
2013-09-17 04:29:00,53.3,48.3,29.47,West,265,0.0,0.0,83,0.00,,---,0.00,VWS V12.08,2013-09-17 09:29:00,
2013-09-17 04:34:00,53.3,48.3,29.47,North,7,0.0,0.0,83,0.00,,---,0.00,VWS V12.08,2013-09-17 09:34:00,
2013-09-17 04:39:00,53.2,48.2,29.47,West,271,0.0,0.0,83,0.00,,---,0.00,VWS V12.08,2013-09-17 09:39:00,
2013-09-17 04:45:00,53.2,48.2,29.47,WSW,244,0.0,0.0,83,0.00,,---,0.00,VWS V12.08,2013-09-17 09:45:00,
2013-09-17 04:51:00,53.2,48.2,29.47,West,268,0.0,0.0,83,0.00,,---,0.00,VWS V12.08,2013-09-17 09:51:00,
2013-09-17 04:56:00,53.1,48.1,29.47,ENE,75,0.0,0.0,83,0.00,,---,0.00,VWS V12.08,2013-09-17 09:56:00,
2013-09-17 05:01:00,53.1,48.1,29.47,SE,131,0.0,0.0,83,0.00,,---,0.00,VWS V12.08,2013-09-17 10:01:00,
2013-09-17 05:06:00,53.1,48.4,29.47,NNW,337,0.0,0.0,84,0.00,,---,0.00,VWS V12.08,2013-09-17 10:06:00,
2013-09-17 05:11:00,53.1,48.4,29.47,West,266,0.0,0.0,84,0.00,,---,0.00,VWS V12.08,2013-09-17 10:11:00,
2013-09-17 05:16:00,53.0,48.3,29.47,ESE,117,0.0,0.0,84,0.00,,---,0.00,VWS V12.08,2013-09-17 10:16:00,
2013-09-17 05:22:00,53.0,48.3,29.47,South,169,0.0,0.0,84,0.00,,---,0.00,VWS V12.08,2013-09-17 10:22:00,
2013-09-17 05:27:00,53.0,48.3,29.47,SW,232,0.0,0.0,84,0.00,,---,0.00,VWS V12.08,2013-09-17 10:27:00,
2013-09-17 05:32:00,53.0,48.3,29.47,NNE,24,0.0,0.0,84,0.00,,---,0.00,VWS V12.08,2013-09-17 10:32:00,
2013-09-17 05:37:00,53.0,48.3,29.47,SSW,212,0.0,0.0,84,0.00,,---,0.00,VWS V12.08,2013-09-17 10:37:00,
2013-09-17 05:42:00,52.9,48.2,29.47,West,271,0.0,0.0,84,0.00,,---,0.00,VWS V12.08,2013-09-17 10:42:00,
2013-09-17 05:47:00,53.0,48.3,29.47,NNW,329,0.0,0.0,84,0.00,,---,0.00,VWS V12.08,2013-09-17 10:47:00,
2013-09-17 05:52:00,52.9,48.2,29.47,East,93,0.0,0.0,84,0.00,,---,0.00,VWS V12.08,2013-09-17 10:52:00,
2013-09-17 05:58:00,53.0,48.3,29.47,SW,226,0.0,0.0,84,0.00,,---,0.00,VWS V12.08,2013-09-17 10:58:00,
2013-09-17 06:03:00,53.0,48.3,29.47,SW,235,0.0,0.0,84,0.00,,---,0.00,VWS V12.08,2013-09-17 11:03:00,
2013-09-17 06:08:00,52.9,48.2,29.47,SE,139,0.0,0.0,84,0.00,,---,0.00,VWS V12.08,2013-09-17 11:08:00,
2013-09-17 06:13:00,52.9,48.2,29.47,NNW,347,0.0,0.0,84,0.00,,---,0.00,VWS V12.08,2013-09-17 11:13:00,
2013-09-17 06:18:00,52.9,48.2,29.47,WNW,293,0.0,0.0,84,0.00,,---,0.00,VWS V12.08,2013-09-17 11:18:00,
2013-09-17 06:23:00,52.9,48.2,29.47,WNW,303,0.0,0.0,84,0.00,,---,0.00,VWS V12.08,2013-09-17 11:23:00,
2013-09-17 06:28:00,52.8,48.1,29.48,NW,314,0.0,0.0,84,0.00,,---,0.00,VWS V12.08,2013-09-17 11:28:00,
2013-09-17 06:34:00,52.9,48.5,29.47,NE,42,0.0,0.0,85,0.00,,---,0.00,VWS V12.08,2013-09-17 11:34:00,
2013-09-17 06:39:00,52.9,48.5,29.47,South,179,0.0,0.0,85,0.00,,---,0.00,VWS V12.08,2013-09-17 11:39:00,
2013-09-17 06:46:00,52.9,48.5,29.47,West,263,0.0,0.0,85,0.00,,---,0.00,VWS V12.08,2013-09-17 11:46:00,
2013-09-17 06:52:00,52.9,48.5,29.47,SSW,197,0.0,0.0,85,0.00,,---,0.00,VWS V12.08,2013-09-17 11:52:00,
2013-09-17 06:57:00,53.0,48.6,29.47,NW,305,0.0,0.0,85,0.00,,---,0.00,VWS V12.08,2013-09-17 11:57:00,
2013-09-17 07:02:00,53.0,48.6,29.47,NW,322,0.0,0.0,85,0.00,,---,0.00,VWS V12.08,2013-09-17 12:02:00,
2013-09-17 07:08:00,53.0,48.6,29.49,WNW,287,0.0,0.0,85,0.00,,---,0.00,VWS V12.08,2013-09-17 12:08:00,
2013-09-17 07:12:00,53.1,48.4,29.49,WNW,302,0.0,0.0,84,0.00,,---,0.00,VWS V12.08,2013-09-17 12:12:00,
2013-09-17 07:18:00,53.1,48.4,29.48,SE,139,0.0,0.0,84,0.00,,---,0.00,VWS V12.08,2013-09-17 12:18:00,
2013-09-17 07:23:00,53.1,48.7,29.48,South,187,0.0,0.0,85,0.00,,---,0.00,VWS V12.08,2013-09-17 12:23:00,
2013-09-17 07:28:00,53.2,48.8,29.48,WSW,257,0.0,0.0,85,0.00,,---,0.00,VWS V12.08,2013-09-17 12:28:00,
2013-09-17 07:33:00,53.3,48.6,29.47,SE,125,0.0,0.0,84,0.00,,---,0.00,VWS V12.08,2013-09-17 12:33:00,
2013-09-17 07:37:00,53.3,48.6,29.47,West,276,0.0,0.0,84,0.00,,---,0.00,VWS V12.08,2013-09-17 12:37:00,
2013-09-17 07:43:00,53.4,49.0,29.48,WSW,241,0.0,0.0,85,0.00,,---,0.00,VWS V12.08,2013-09-17 12:43:00,
2013-09-17 07:48:00,53.5,48.8,29.48,South,191,0.0,0.0,84,0.00,,---,0.00,VWS V12.08,2013-09-17 12:48:00,
2013-09-17 07:53:00,53.5,49.1,29.48,NW,315,0.0,0.0,85,0.00,,---,0.00,VWS V12.08,2013-09-17 12:53:00,
2013-09-17 07:59:00,53.6,48.9,29.47,West,279,0.0,0.0,84,0.00,,---,0.00,VWS V12.08,2013-09-17 12:59:00,
2013-09-17 08:05:00,53.6,49.2,29.47,SSE,153,0.0,0.0,85,0.01,,---,0.01,VWS V12.08,2013-09-17 13:05:00,
2013-09-17 08:10:00,53.3,48.9,29.46,SSW,199,0.0,0.0,85,0.03,,---,0.03,VWS V12.08,2013-09-17 13:10:00,
2013-09-17 08:15:00,53.3,48.9,29.46,SSE,163,0.0,0.0,85,0.03,,---,0.03,VWS V12.08,2013-09-17 13:15:00,
2013-09-17 08:20:00,53.3,49.2,29.46,SSE,167,0.0,0.0,86,0.03,,---,0.03,VWS V12.08,2013-09-17 13:20:00,
2013-09-17 08:26:00,53.3,49.2,29.46,NW,314,0.0,0.0,86,0.03,,---,0.03,VWS V12.08,2013-09-17 13:26:00,
2013-09-17 08:31:00,53.4,49.3,29.46,SW,226,0.0,0.0,86,0.03,,---,0.03,VWS V12.08,2013-09-17 13:31:00,
2013-09-17 08:36:00,53.4,49.3,29.46,SSE,162,0.0,0.0,86,0.03,,---,0.03,VWS V12.08,2013-09-17 13:36:00,
2013-09-17 08:42:00,53.3,49.5,29.46,SE,131,0.0,0.0,87,0.03,,---,0.03,VWS V12.08,2013-09-17 13:42:00,
2013-09-17 08:47:00,53.2,49.4,29.46,SSE,158,0.0,0.0,87,0.03,,---,0.03,VWS V12.08,2013-09-17 13:47:00,
2013-09-17 08:52:00,53.3,49.5,29.47,SSE,148,0.0,0.0,87,0.03,,---,0.03,VWS V12.08,2013-09-17 13:52:00,
2013-09-17 08:57:00,53.3,49.5,29.47,SE,136,0.0,0.0,87,0.03,,---,0.03,VWS V12.08,2013-09-17 13:57:00,
2013-09-17 09:02:00,53.4,49.6,29.47,South,171,0.0,0.0,87,0.03,,---,0.03,VWS V12.08,2013-09-17 14:02:00,
2013-09-17 09:07:00,53.4,49.9,29.46,South,174,0.0,0.0,88,0.03,,---,0.03,VWS V12.08,2013-09-17 14:07:00,
2013-09-17 09:12:00,53.5,50.0,29.46,SW,234,0.0,0.0,88,0.03,,---,0.03,VWS V12.08,2013-09-17 14:12:00,
2013-09-17 09:17:00,53.7,50.2,29.46,SE,130,0.0,0.0,88,0.03,,---,0.03,VWS V12.08,2013-09-17 14:17:00,
2013-09-17 09:22:00,53.7,50.2,29.46,SSE,160,0.0,0.0,88,0.03,,---,0.03,VWS V12.08,2013-09-17 14:22:00,
2013-09-17 09:27:00,53.8,50.3,29.45,South,179,0.0,0.0,88,0.03,,---,0.03,VWS V12.08,2013-09-17 14:27:00,
2013-09-17 09:32:00,53.9,50.7,29.46,ESE,112,0.0,0.0,89,0.00,,---,0.03,VWS V12.08,2013-09-17 14:32:00,
2013-09-17 09:37:00,54.0,50.5,29.46,SE,143,0.0,0.0,88,0.00,,---,0.03,VWS V12.08,2013-09-17 14:37:00,
2013-09-17 09:42:00,54.2,51.0,29.46,SSE,149,0.0,0.0,89,0.00,,---,0.03,VWS V12.08,2013-09-17 14:42:00,
2013-09-17 09:47:00,54.4,51.2,29.46,SE,138,0.0,0.0,89,0.00,,---,0.03,VWS V12.08,2013-09-17 14:47:00,
2013-09-17 09:52:00,54.5,51.3,29.46,West,279,0.0,0.0,89,0.00,,---,0.03,VWS V12.08,2013-09-17 14:52:00,
2013-09-17 09:57:00,54.5,51.3,29.45,WSW,240,0.0,0.0,89,0.00,,---,0.03,VWS V12.08,2013-09-17 14:57:00,
2013-09-17 10:02:00,54.6,51.1,29.45,South,189,0.0,0.0,88,0.00,,---,0.03,VWS V12.08,2013-09-17 15:02:00,
2013-09-17 10:07:00,54.7,51.5,29.46,West,262,0.0,0.0,89,0.00,,---,0.03,VWS V12.08,2013-09-17 15:07:00,
2013-09-17 10:13:00,54.9,51.4,29.45,SSE,157,0.0,0.0,88,0.00,,---,0.03,VWS V12.08,2013-09-17 15:13:00,
2013-09-17 10:18:00,54.9,51.4,29.45,SSE,151,0.0,0.0,88,0.00,,---,0.03,VWS V12.08,2013-09-17 15:18:00,
2013-09-17 10:23:00,55.1,51.6,29.45,SW,225,0.0,0.0,88,0.00,,---,0.03,VWS V12.08,2013-09-17 15:23:00,
2013-09-17 10:29:00,55.1,51.6,29.45,SE,127,0.0,0.0,88,0.00,,---,0.03,VWS V12.08,2013-09-17 15:29:00,
2013-09-17 10:34:00,55.3,51.8,29.45,SSW,207,0.0,0.0,88,0.00,,---,0.03,VWS V12.08,2013-09-17 15:34:00,
2013-09-17 10:40:00,55.4,51.9,29.45,SSE,161,0.0,0.0,88,0.00,,---,0.03,VWS V12.08,2013-09-17 15:40:00,
2013-09-17 10:45:00,55.5,52.0,29.45,WSW,245,0.0,0.0,88,0.00,,---,0.03,VWS V12.08,2013-09-17 15:45:00,
2013-09-17 10:50:00,55.5,51.7,29.45,SSE,153,0.0,0.0,87,0.00,,---,0.03,VWS V12.08,2013-09-17 15:50:00,
2013-09-17 10:55:00,55.5,51.7,29.45,South,183,0.0,0.0,87,0.00,,---,0.03,VWS V12.08,2013-09-17 15:55:00,
2013-09-17 11:00:00,55.7,52.2,29.45,WSW,258,0.0,0.0,88,0.00,,---,0.03,VWS V12.08,2013-09-17 16:00:00,
2013-09-17 11:06:00,55.8,52.0,29.44,SW,230,0.0,0.0,87,0.00,,---,0.03,VWS V12.08,2013-09-17 16:06:00,
2013-09-17 11:12:00,55.9,52.4,29.44,SE,139,0.0,0.0,88,0.00,,---,0.03,VWS V12.08,2013-09-17 16:12:00,
2013-09-17 11:30:00,56.0,52.5,29.44,ESE,112,0.0,0.0,88,0.01,,---,0.04,VWS V12.08,2013-09-17 16:30:00,
2013-09-17 11:39:00,56.0,52.5,29.43,SE,133,0.0,0.0,88,0.01,,---,0.04,VWS V12.08,2013-09-17 16:39:00,
2013-09-17 11:48:00,56.2,52.7,29.43,SSW,197,0.0,0.0,88,0.01,,---,0.04,VWS V12.08,2013-09-17 16:48:00,
2013-09-17 11:59:00,56.3,53.1,29.43,ESE,117,0.0,0.0,89,0.02,,---,0.05,VWS V12.08,2013-09-17 16:59:00,
2013-09-17 12:05:00,56.4,53.2,29.43,SSE,147,0.0,0.0,89,0.02,,---,0.05,VWS V12.08,2013-09-17 17:05:00,
2013-09-17 12:10:00,56.5,53.3,29.42,SE,133,0.0,0.0,89,0.02,,---,0.05,VWS V12.08,2013-09-17 17:10:00,
2013-09-17 12:15:00,56.6,53.7,29.42,ESE,114,0.0,0.0,90,0.02,,---,0.05,VWS V12.08,2013-09-17 17:15:00,
2013-09-17 12:20:00,56.7,53.5,29.42,ESE,112,0.0,0.0,89,0.02,,---,0.05,VWS V12.08,2013-09-17 17:20:00,
2013-09-17 12:26:00,56.8,53.6,29.42,South,171,0.0,0.0,89,0.02,,---,0.05,VWS V12.08,2013-09-17 17:26:00,
2013-09-17 12:32:00,57.0,54.1,29.42,SSW,192,0.0,0.0,90,0.01,,---,0.05,VWS V12.08,2013-09-17 17:32:00,
2013-09-17 12:37:00,57.2,54.3,29.41,SE,145,0.0,0.0,90,0.01,,---,0.05,VWS V12.08,2013-09-17 17:37:00,
2013-09-17 12:42:00,57.4,54.5,29.41,SSW,202,0.0,0.0,90,0.01,,---,0.05,VWS V12.08,2013-09-17 17:42:00,
2013-09-17 12:47:00,57.6,54.7,29.42,SE,145,0.0,0.0,90,0.01,,---,0.05,VWS V12.08,2013-09-17 17:47:00,
2013-09-17 12:52:00,57.9,55.0,29.41,SSW,201,0.0,0.0,90,0.01,,---,0.05,VWS V12.08,2013-09-17 17:52:00,
2013-09-17 12:57:00,58.0,55.1,29.41,SSW,199,0.0,0.0,90,0.01,,---,0.05,VWS V12.08,2013-09-17 17:57:00,
2013-09-17 13:02:00,58.3,55.4,29.41,WSW,250,0.0,0.0,90,0.00,,---,0.05,VWS V12.08,2013-09-17 18:02:00,
2013-09-17 13:07:00,58.4,55.2,29.40,ESE,107,0.0,0.0,89,0.00,,---,0.05,VWS V12.08,2013-09-17 18:07:00,
2013-09-17 13:12:00,58.6,55.4,29.40,South,189,0.0,0.0,89,0.00,,---,0.05,VWS V12.08,2013-09-17 18:12:00,
2013-09-17 13:17:00,58.9,55.7,29.40,ESE,114,0.0,0.0,89,0.00,,---,0.05,VWS V12.08,2013-09-17 18:17:00,
2013-09-17 13:22:00,59.2,56.0,29.40,ESE,104,0.0,0.0,89,0.00,,---,0.05,VWS V12.08,2013-09-17 18:22:00,
2013-09-17 13:27:00,59.4,55.8,29.39,SSE,150,0.0,0.0,88,0.00,,---,0.05,VWS V12.08,2013-09-17 18:27:00,
2013-09-17 13:32:00,59.6,56.0,29.39,ESE,123,0.0,0.0,88,0.00,,---,0.05,VWS V12.08,2013-09-17 18:32:00,
2013-09-17 13:37:00,59.8,55.9,29.39,SSE,168,0.0,0.0,87,0.00,,---,0.05,VWS V12.08,2013-09-17 18:37:00,
2013-09-17 13:42:00,59.9,56.0,29.39,SSE,160,0.0,0.0,87,0.00,,---,0.05,VWS V12.08,2013-09-17 18:42:00,
2013-09-17 13:47:00,60.2,56.3,29.39,NW,326,0.0,0.0,87,0.00,,---,0.05,VWS V12.08,2013-09-17 18:47:00,
2013-09-17 13:52:00,60.3,56.4,29.38,SE,136,0.0,0.0,87,0.00,,---,0.05,VWS V12.08,2013-09-17 18:52:00,
2013-09-17 13:57:00,60.5,56.3,29.38,ESE,122,0.0,0.0,86,0.00,,---,0.05,VWS V12.08,2013-09-17 18:57:00,
2013-09-17 14:02:00,60.8,56.6,29.38,South,189,0.0,0.0,86,0.00,,---,0.05,VWS V12.08,2013-09-17 19:02:00,
2013-09-17 14:07:00,61.0,56.5,29.38,SSE,167,0.0,0.0,85,0.00,,---,0.05,VWS V12.08,2013-09-17 19:07:00,
2013-09-17 14:12:00,61.3,56.8,29.38,West,265,0.0,0.0,85,0.00,,---,0.05,VWS V12.08,2013-09-17 19:12:00,
2013-09-17 14:17:00,61.5,56.6,29.37,NNW,347,0.0,1.0,84,0.00,,---,0.05,VWS V12.08,2013-09-17 19:17:00,
2013-09-17 14:23:00,61.8,56.9,29.38,West,269,0.0,1.0,84,0.00,,---,0.05,VWS V12.08,2013-09-17 19:23:00,
2013-09-17 14:28:00,61.9,56.7,29.37,SW,224,0.0,1.0,83,0.00,,---,0.05,VWS V12.08,2013-09-17 19:28:00,
2013-09-17 14:34:00,61.9,56.7,29.37,SW,226,0.0,0.0,83,0.00,,---,0.05,VWS V12.08,2013-09-17 19:34:00,
2013-09-17 14:39:00,62.0,56.8,29.37,SSE,156,0.0,0.0,83,0.00,,---,0.05,VWS V12.08,2013-09-17 19:39:00,
2013-09-17 14:44:00,62.2,57.0,29.36,South,170,0.0,0.0,83,0.00,,---,0.05,VWS V12.08,2013-09-17 19:44:00,
2013-09-17 14:49:00,62.5,56.9,29.35,SSW,198,0.0,0.0,82,0.00,,---,0.05,VWS V12.08,2013-09-17 19:49:00,
2013-09-17 14:54:00,62.6,57.0,29.35,SSE,155,0.0,0.0,82,0.00,,---,0.05,VWS V12.08,2013-09-17 19:54:00,
2013-09-17 14:59:00,62.6,56.7,29.35,South,180,0.0,0.0,81,0.00,,---,0.05,VWS V12.08,2013-09-17 19:59:00,
2013-09-17 15:04:00,62.5,56.9,29.34,WNW,284,0.0,0.0,82,0.00,,---,0.05,VWS V12.08,2013-09-17 20:04:00,
2013-09-17 15:10:00,62.5,56.9,29.34,South,176,0.0,0.0,82,0.00,,---,0.05,VWS V12.08,2013-09-17 20:10:00,
2013-09-17 15:15:00,62.6,57.0,29.34,SSE,155,0.0,0.0,82,0.00,,---,0.05,VWS V12.08,2013-09-17 20:15:00,
2013-09-17 15:20:00,62.6,56.7,29.34,South,180,0.0,0.0,81,0.00,,---,0.05,VWS V12.08,2013-09-17 20:20:00,
2013-09-17 15:25:00,62.7,57.1,29.34,WSW,248,0.0,0.0,82,0.00,,---,0.05,VWS V12.08,2013-09-17 20:25:00,
2013-09-17 15:31:00,62.7,57.1,29.34,South,173,0.0,0.0,82,0.00,,---,0.05,VWS V12.08,2013-09-17 20:31:00,
2013-09-17 15:36:00,62.7,57.1,29.34,WSW,237,0.0,0.0,82,0.00,,---,0.05,VWS V12.08,2013-09-17 20:36:00,
2013-09-17 15:41:00,62.8,57.2,29.34,South,186,0.0,1.0,82,0.00,,---,0.05,VWS V12.08,2013-09-17 20:41:00,
2013-09-17 15:46:00,62.7,57.1,29.34,West,260,0.0,1.0,82,0.00,,---,0.05,VWS V12.08,2013-09-17 20:46:00,
2013-09-17 15:51:00,62.5,57.3,29.34,WNW,284,0.0,1.0,83,0.00,,---,0.05,VWS V12.08,2013-09-17 20:51:00,
2013-09-17 15:57:00,62.3,57.4,29.34,NW,315,0.0,1.0,84,0.00,,---,0.05,VWS V12.08,2013-09-17 20:57:00,
2013-09-17 16:03:00,61.9,57.3,29.33,West,271,0.0,0.0,85,0.00,,---,0.05,VWS V12.08,2013-09-17 21:03:00,
2013-09-17 16:08:00,61.6,57.4,29.33,NW,321,0.0,0.0,86,0.01,,---,0.06,VWS V12.08,2013-09-17 21:08:00,
2013-09-17 16:13:00,61.3,57.1,29.33,NNW,348,0.0,0.0,86,0.01,,---,0.06,VWS V12.08,2013-09-17 21:13:00,
2013-09-17 16:19:00,61.2,57.6,29.33,North,0,0.0,0.0,88,0.01,,---,0.06,VWS V12.08,2013-09-17 21:19:00,
2013-09-17 16:25:00,61.2,57.6,29.33,North,358,0.0,0.0,88,0.01,,---,0.06,VWS V12.08,2013-09-17 21:25:00,
2013-09-17 16:31:00,61.1,57.8,29.33,North,0,0.0,0.0,89,0.01,,---,0.06,VWS V12.08,2013-09-17 21:31:00,
2013-09-17 16:36:00,61.1,57.8,29.33,SE,128,0.0,0.0,89,0.01,,---,0.06,VWS V12.08,2013-09-17 21:36:00,
2013-09-17 16:41:00,61.2,58.2,29.33,West,267,0.0,0.0,90,0.01,,---,0.06,VWS V12.08,2013-09-17 21:41:00,
2013-09-17 16:46:00,61.2,58.2,29.32,South,169,0.0,0.0,90,0.01,,---,0.06,VWS V12.08,2013-09-17 21:46:00,
2013-09-17 16:51:00,61.2,58.2,29.32,SW,232,0.0,0.0,90,0.01,,---,0.06,VWS V12.08,2013-09-17 21:51:00,
2013-09-17 16:56:00,61.2,58.2,29.32,North,349,0.0,0.0,90,0.01,,---,0.06,VWS V12.08,2013-09-17 21:56:00,
2013-09-17 17:01:00,61.3,58.3,29.32,West,271,0.0,0.0,90,0.01,,---,0.06,VWS V12.08,2013-09-17 22:01:00,
2013-09-17 17:06:00,61.3,58.3,29.32,WSW,257,0.0,0.0,90,0.01,,---,0.06,VWS V12.08,2013-09-17 22:06:00,
2013-09-17 17:11:00,61.4,58.5,29.32,South,180,0.0,0.0,90,0.01,,---,0.06,VWS V12.08,2013-09-17 22:11:00,
2013-09-17 17:16:00,61.5,58.5,29.32,SSW,209,0.0,0.0,90,0.01,,---,0.06,VWS V12.08,2013-09-17 22:16:00,
2013-09-17 17:22:00,61.5,58.8,29.31,WNW,289,0.0,0.0,91,0.01,,---,0.06,VWS V12.08,2013-09-17 22:22:00,
2013-09-17 17:27:00,61.9,59.2,29.31,SW,229,0.0,0.0,91,0.01,,---,0.06,VWS V12.08,2013-09-17 22:27:00,
2013-09-17 17:32:00,62.1,59.5,29.31,SSE,162,0.0,0.0,91,0.00,,---,0.06,VWS V12.08,2013-09-17 22:32:00,
2013-09-17 17:38:00,62.2,59.5,29.31,West,270,0.0,0.0,91,0.00,,---,0.06,VWS V12.08,2013-09-17 22:38:00,
2013-09-17 17:43:00,62.1,59.1,29.31,South,175,0.0,0.0,90,0.00,,---,0.06,VWS V12.08,2013-09-17 22:43:00,
2013-09-17 17:48:00,62.2,59.5,29.32,WNW,291,0.0,0.0,91,0.00,,---,0.06,VWS V12.08,2013-09-17 22:48:00,
2013-09-17 17:53:00,62.2,59.2,29.31,West,273,0.0,0.0,90,0.00,,---,0.06,VWS V12.08,2013-09-17 22:53:00,
2013-09-17 17:58:00,62.2,59.2,29.31,ESE,113,0.0,0.0,90,0.00,,---,0.06,VWS V12.08,2013-09-17 22:58:00,
2013-09-17 18:03:00,62.2,59.2,29.31,SW,231,0.0,0.0,90,0.00,,---,0.06,VWS V12.08,2013-09-17 23:03:00,
2013-09-17 18:08:00,62.3,59.3,29.31,SE,141,0.0,0.0,90,0.00,,---,0.06,VWS V12.08,2013-09-17 23:08:00,
2013-09-17 18:13:00,62.4,59.4,29.30,SSE,159,0.0,0.0,90,0.00,,---,0.06,VWS V12.08,2013-09-17 23:13:00,
2013-09-17 18:18:00,62.4,59.4,29.31,South,179,0.0,0.0,90,0.00,,---,0.06,VWS V12.08,2013-09-17 23:18:00,
2013-09-17 18:24:00,62.6,59.6,29.31,North,0,0.0,1.0,90,0.00,,---,0.06,VWS V12.08,2013-09-17 23:24:00,
2013-09-17 18:29:00,62.6,59.6,29.31,North,355,0.0,1.0,90,0.00,,---,0.06,VWS V12.08,2013-09-17 23:29:00,
2013-09-17 18:35:00,62.7,59.7,29.31,East,93,0.0,0.0,90,0.00,,---,0.06,VWS V12.08,2013-09-17 23:35:00,
2013-09-17 18:40:00,62.7,59.7,29.30,SW,235,0.0,0.0,90,0.00,,---,0.06,VWS V12.08,2013-09-17 23:40:00,
2013-09-17 18:45:00,62.8,59.8,29.30,North,349,0.0,0.0,90,0.00,,---,0.06,VWS V12.08,2013-09-17 23:45:00,
2013-09-17 18:51:00,62.8,59.8,29.30,SSW,203,0.0,1.0,90,0.00,,---,0.06,VWS V12.08,2013-09-17 23:51:00,
2013-09-17 18:56:00,62.8,59.8,29.30,SW,231,0.0,1.0,90,0.00,,---,0.06,VWS V12.08,2013-09-17 23:56:00,
2013-09-17 19:01:00,62.8,59.8,29.30,South,186,0.0,0.0,90,0.00,,---,0.06,VWS V12.08,2013-09-18 00:01:00,
2013-09-17 19:06:00,62.9,59.6,29.29,WNW,292,0.0,0.0,89,0.00,,---,0.06,VWS V12.08,2013-09-18 00:06:00,
2013-09-17 19:12:00,62.9,59.9,29.29,West,275,0.0,0.0,90,0.00,,---,0.06,VWS V12.08,2013-09-18 00:12:00,
2013-09-17 19:17:00,62.9,59.9,29.29,NE,44,0.0,0.0,90,0.00,,---,0.06,VWS V12.08,2013-09-18 00:17:00,
2013-09-17 19:22:00,62.9,59.6,29.29,ESE,112,0.0,0.0,89,0.00,,---,0.06,VWS V12.08,2013-09-18 00:22:00,
2013-09-17 19:27:00,62.9,59.6,29.29,WNW,302,0.0,0.0,89,0.00,,---,0.06,VWS V12.08,2013-09-18 00:27:00,
2013-09-17 19:33:00,62.9,59.6,29.29,SSE,155,0.0,0.0,89,0.00,,---,0.06,VWS V12.08,2013-09-18 00:33:00,
2013-09-17 19:38:00,63.0,59.7,29.29,WNW,299,0.0,0.0,89,0.00,,---,0.06,VWS V12.08,2013-09-18 00:38:00,
2013-09-17 19:43:00,63.0,60.0,29.29,WSW,246,0.0,0.0,90,0.00,,---,0.06,VWS V12.08,2013-09-18 00:43:00,
2013-09-17 19:48:00,63.0,60.0,29.29,SSE,154,0.0,0.0,90,0.00,,---,0.06,VWS V12.08,2013-09-18 00:48:00,
2013-09-17 19:53:00,63.0,60.0,29.29,South,184,0.0,0.0,90,0.00,,---,0.06,VWS V12.08,2013-09-18 00:53:00,
2013-09-17 19:58:00,63.0,60.0,29.29,East,95,0.0,0.0,90,0.00,,---,0.06,VWS V12.08,2013-09-18 00:58:00,
2013-09-17 20:03:00,63.0,60.0,29.28,SSE,160,0.0,0.0,90,0.00,,---,0.06,VWS V12.08,2013-09-18 01:03:00,
2013-09-17 20:08:00,63.0,60.0,29.28,SSE,158,0.0,0.0,90,0.00,,---,0.06,VWS V12.08,2013-09-18 01:08:00,
2013-09-17 20:13:00,63.1,59.8,29.29,SSE,163,0.0,0.0,89,0.00,,---,0.06,VWS V12.08,2013-09-18 01:13:00,
2013-09-17 20:19:00,63.1,60.1,29.29,South,169,0.0,0.0,90,0.00,,---,0.06,VWS V12.08,2013-09-18 01:19:00,
2013-09-17 20:25:00,63.1,60.1,29.29,West,266,0.0,0.0,90,0.00,,---,0.06,VWS V12.08,2013-09-18 01:25:00,
2013-09-17 20:30:00,63.1,60.1,29.29,SE,140,0.0,0.0,90,0.00,,---,0.06,VWS V12.08,2013-09-18 01:30:00,
2013-09-17 20:35:00,63.1,60.1,29.29,NW,316,0.0,0.0,90,0.00,,---,0.06,VWS V12.08,2013-09-18 01:35:00,
2013-09-17 20:40:00,63.2,59.9,29.29,North,353,0.0,1.0,89,0.00,,---,0.06,VWS V12.08,2013-09-18 01:40:00,
2013-09-17 20:45:00,63.2,60.2,29.29,WSW,256,0.0,1.0,90,0.00,,---,0.06,VWS V12.08,2013-09-18 01:45:00,
2013-09-17 20:50:00,63.2,59.9,29.29,SSE,163,0.0,1.0,89,0.00,,---,0.06,VWS V12.08,2013-09-18 01:50:00,
2013-09-17 20:55:00,63.2,60.2,29.29,SSW,206,1.0,1.0,90,0.00,,---,0.06,VWS V12.08,2013-09-18 01:55:00,
2013-09-17 21:01:00,63.2,60.2,29.29,NNW,341,0.0,1.0,90,0.00,,---,0.06,VWS V12.08,2013-09-18 02:01:00,
2013-09-17 21:06:00,63.2,60.2,29.29,North,351,0.0,1.0,90,0.00,,---,0.06,VWS V12.08,2013-09-18 02:06:00,
2013-09-17 21:11:00,63.2,60.2,29.29,North,359,0.0,1.0,90,0.00,,---,0.06,VWS V12.08,2013-09-18 02:11:00,
2013-09-17 21:16:00,63.2,60.2,29.29,North,359,0.0,1.0,90,0.00,,---,0.06,VWS V12.08,2013-09-18 02:16:00,
2013-09-17 21:21:00,63.2,60.2,29.30,North,356,0.0,1.0,90,0.00,,---,0.06,VWS V12.08,2013-09-18 02:21:00,
2013-09-17 21:26:00,63.1,60.1,29.30,WSW,250,0.0,1.0,90,0.00,,---,0.06,VWS V12.08,2013-09-18 02:26:00,
2013-09-17 21:31:00,63.1,60.1,29.29,NNW,329,0.0,1.0,90,0.00,,---,0.06,VWS V12.08,2013-09-18 02:31:00,
2013-09-17 21:36:00,63.1,60.1,29.29,WSW,242,0.0,1.0,90,0.00,,---,0.06,VWS V12.08,2013-09-18 02:36:00,
2013-09-17 21:41:00,63.1,60.1,29.30,NW,304,0.0,1.0,90,0.00,,---,0.06,VWS V12.08,2013-09-18 02:41:00,
2013-09-17 21:46:00,63.1,60.1,29.30,NNW,343,0.0,1.0,90,0.00,,---,0.06,VWS V12.08,2013-09-18 02:46:00,
2013-09-17 21:51:00,63.1,60.1,29.30,North,351,0.0,1.0,90,0.00,,---,0.06,VWS V12.08,2013-09-18 02:51:00,
2013-09-17 21:56:00,63.1,60.1,29.30,WSW,249,0.0,1.0,90,0.00,,---,0.06,VWS V12.08,2013-09-18 02:56:00,
2013-09-17 22:01:00,63.1,60.1,29.30,West,265,0.0,0.0,90,0.00,,---,0.06,VWS V12.08,2013-09-18 03:01:00,
2013-09-17 22:06:00,63.1,60.1,29.30,NNW,342,0.0,0.0,90,0.00,,---,0.06,VWS V12.08,2013-09-18 03:06:00,
2013-09-17 22:11:00,63.1,60.1,29.30,NW,320,0.0,0.0,90,0.00,,---,0.06,VWS V12.08,2013-09-18 03:11:00,
2013-09-17 22:17:00,63.1,60.4,29.30,West,267,0.0,0.0,91,0.00,,---,0.06,VWS V12.08,2013-09-18 03:17:00,
2013-09-17 22:22:00,63.0,60.3,29.31,SSE,161,0.0,1.0,91,0.00,,---,0.06,VWS V12.08,2013-09-18 03:22:00,
2013-09-17 22:28:00,63.1,60.1,29.31,WSW,239,0.0,1.0,90,0.00,,---,0.06,VWS V12.08,2013-09-18 03:28:00,
2013-09-17 22:33:00,63.1,60.4,29.30,WNW,285,0.0,0.0,91,0.00,,---,0.06,VWS V12.08,2013-09-18 03:33:00,
2013-09-17 22:38:00,63.1,60.4,29.30,SSE,158,0.0,1.0,91,0.00,,---,0.06,VWS V12.08,2013-09-18 03:38:00,
2013-09-17 22:44:00,63.1,60.4,29.30,WNW,284,1.0,1.0,91,0.00,,---,0.06,VWS V12.08,2013-09-18 03:44:00,
2013-09-17 22:54:00,63.2,60.5,29.30,NNW,328,0.0,1.0,91,0.00,,---,0.06,VWS V12.08,2013-09-18 03:54:00,
2013-09-17 23:00:00,63.2,60.5,29.30,West,259,0.0,1.0,91,0.00,,---,0.06,VWS V12.08,2013-09-18 04:00:00,
2013-09-17 23:01:00,63.2,60.5,29.30,NW,304,0.0,0.0,91,0.00,,---,0.06,VWS V12.08,2013-09-18 04:01:00,
2013-09-17 23:03:00,63.2,60.5,29.30,SSE,151,0.0,1.0,91,0.00,,---,0.06,VWS V12.08,2013-09-18 04:03:00,
2013-09-17 23:05:00,63.2,60.5,29.30,NNW,344,0.0,1.0,91,0.00,,---,0.06,VWS V12.08,2013-09-18 04:05:00,
2013-09-17 23:10:00,63.2,60.5,29.30,SW,225,0.0,1.0,91,0.00,,---,0.06,VWS V12.08,2013-09-18 04:10:00,
2013-09-17 23:12:00,63.2,60.5,29.30,SW,232,0.0,1.0,91,0.00,,---,0.06,VWS V12.08,2013-09-18 04:12:00,
2013-09-17 23:17:00,63.2,60.5,29.30,North,350,0.0,1.0,91,0.00,,---,0.06,VWS V12.08,2013-09-18 04:17:00,
2013-09-17 23:23:00,63.1,60.7,29.30,WNW,298,0.0,1.0,92,0.00,,---,0.06,VWS V12.08,2013-09-18 04:23:00,
2013-09-17 23:28:00,63.1,60.7,29.30,WNW,299,0.0,1.0,92,0.00,,---,0.06,VWS V12.08,2013-09-18 04:28:00,
2013-09-17 23:33:00,63.1,60.7,29.30,NW,308,0.0,0.0,92,0.00,,---,0.06,VWS V12.08,2013-09-18 04:33:00,
2013-09-17 23:38:00,63.2,60.8,29.29,WNW,288,0.0,1.0,92,0.00,,---,0.06,VWS V12.08,2013-09-18 04:38:00,
2013-09-17 23:43:00,63.2,60.8,29.30,West,267,0.0,1.0,92,0.00,,---,0.06,VWS V12.08,2013-09-18 04:43:00,
2013-09-17 23:48:00,63.2,60.8,29.29,NNW,338,0.0,1.0,92,0.00,,---,0.06,VWS V12.08,2013-09-18 04:48:00,
2013-09-17 23:53:00,63.2,60.8,29.29,West,272,0.0,1.0,92,0.00,,---,0.06,VWS V12.08,2013-09-18 04:53:00,
2013-09-17 23:59:00,63.2,60.8,29.29,NNE,23,0.0,1.0,92,0.00,,---,0.06,VWS V12.08,2013-09-18 04:59:00,